Location: Alafon
(8.4500°N, 4.2333°E)
Time: 02:15:43
(UTC+00:00)

deb Explorer IX - Pass Details

Date: 26 July 2021
Orbit: 545 x 1092 km, 38.8° (Epoch: 16 September)

Event Time Altitude Azimuth Distance (km) Brightness Sun altitude
Rises 19:51:35 0° 335° (NNW) 3,826 ? -25.2°
Reaches altitude 10° 19:55:52 10° 359° (N) 2,917 ? -26.1°
Maximum altitude 19:59:29 14° 29° (NNE) 2,619 ? -26.9°
Enters shadow 20:01:06 13° 44° (NE) 2,681 ? -27.3°
Drops below altitude 10° 20:03:06 10° 60° (ENE) 2,918 - -27.7°
Sets 20:07:21 0° 83° (E) 3,830 - -28.7°
